Погода в Ургенче

Погода в Ургенче : погода сейчас, прогноз погоды и архив. Всё, что Вы хотите узнать о погоде в Ургенче!

Поиск расширенной информации на нашем сайте:

Другие новости

Новости СМИ2

Главная страница сайта

Новости сайта

03.07.2017

Напоминаем, что на нашем специализированном сайте Метеоцентр.Азия вы можете получить высокодетализированные автоматические прогнозы погоды по пунктам России, СНГ и мира в авиационном формате (включающие направление и скорость ветра, видимость, явления погоды, количество и форму облачности, нижнюю и верхнюю границу облачности).

Рекомендуем: туроператоры по абхазии

Погода в Ургенче - сегодня

Время (UTC), дата Ветер
(°,м/с) 
Видим.   Явления Облачность Т
(°С)
Тd
(°С)
f(%) Тe
(°С)
Pmin
(гПа)
dP
(гПа)
Po
(мм)
O2
(г/м3)
Тmin Tmax R s Состояние
почвы
18 17.11.17 160 (Ю) 10 км    ясно 
+5.7 -3.8 50 +5  1025.2  -0.5  759  300    +15.2       
21 17.11.17 190 (Ю) 10 км    3/0 средняя 
[Ac trans]
+5.6 -3.9 50 +5  1024.4  -0.8  759  300           
00 18.11.17 240 (ЮЗ) 10 км    9/9 1500 м 
[Sc]
+6.7 -2.3 53 +5  1024.6  0.3  759  299    +0.4       
03 18.11.17 360 (С) 10 км    9/9 240 м 
[Sc]
+5.3 +3.1 86 +4  1027.7  761  300  +4.1         
06 18.11.17 030 (СВ) 10 км    6/4 1500 м верхняя 
[Sc|Ci fib]
+5.8 -1.5 59 +4  1030.8  764  301  +4.1         
09 18.11.17 030 (СВ) 10 км    ясно 
+7.2 -4.1 44 +5  1031.6  0.9  764  301           
12 18.11.17 040 (СВ) 10 км    1/0 верхняя 
[Ci fib]
+6.3 -5.2 44 +5  1032.8  1.1  765  302           
15 18.11.17 060 (СВ) 10 км    ясно 
+1.4 -5.2 61 1034  766  308    +7.5       
18 18.11.17 070 (В) 10 км    ясно 
-0.3 -5.2 69 -2  1034.9  0.8  766  310    +7.5       
21 18.11.17 090 (В) 10 км    ясно 
-0.7 -4.6 75 -3  1034.6  -0.4  766  310           
00 19.11.17 080 (В) 10 км    ясно 
-1.4 -4.6 79 -5  1033.9  -0.7  766  311           
03 19.11.17 080 (В) 10 км    ясно 
-3.3 -5.7 83 -5  1033.6  -0.3  765  313  -3.4        влажная 
06 19.11.17 090 (В) 10 км    ясно 
+1.9 -3.8 66 -1  1033.6  0.2  766  307  -3.4         
09 19.11.17 080 (В) 10 км    ясно 
+7.5 -3.3 46 +6  1031.2  -2.1  764  300           
12 19.11.17 080 (В) 10 км    ясно 
+7.9 -3.6 44 +6  1029.9  -1.3  763  299           
15 19.11.17 070 (В) 10 км    ясно 
+3.1 -5.2 54 +2  1029.5  -0.5  763  304    +8.8       
18 19.11.17 080 (В) 10 км    ясно 
+0.8 -6.5 58 -1  1028.9  -0.7  762  307    +8.8       
21 19.11.17 080 (В) 10 км    ясно 
-1.3 -6.4 68 -2  1027.8  -1.1  761  309           
00 20.11.17 070 (В) 10 км    ясно 
-2.5 -7.7 67 -4  1027.4  -0.6  761  310           
03 20.11.17 080 (В) 10 км    ясно 
-3.6 -8 71 -6  1027.2  -0.3  761  311  -3.6        замёрзшая 
06 20.11.17 100 (В) 10 км    ясно 
+4.4 -3.8 55 +3  1026.7  -0.1  761  302  -3.6         
09 20.11.17 090 (В) 10 км    ясно 
+11.5 -0.7 43 +11  1023.7  -2.6  759  293           
12 20.11.17 070 (В) 10 км    ясно 
+11.8 -1.2 40 +12  1022.9  -0.8  758  293           
15 20.11.17 080 (В) 4000 м    ясно 
+6.7 -2 54 +6  1022.9  -0.2  758  298    +13.3       
18 20.11.17 100 (В) 4000 м    ясно 
+5.1 -2.1 60 +3  1022.2  -0.8  757  300    +13.3       
Время (UTC), дата Ветер
(°,м/с) 
Видим.   Явления Облачность Т
(°С)
Тd
(°С)
f(%) Тe
(°С)
Pmin
(гПа)
dP
(гПа)
Po
(мм)
O2
(г/м3)
Тmin Tmax R s Состояние
почвы

Для получения пояснительной информации подведите курсор к названию столбца.

ПОГОДА в Ургенче - архив

Всё, что Вы хотите узнать о погоде в Ургенче - удобно и подробно!

Выберите нужную дату (начиная с 1 января 2015* года) и нажмите кнопку "Найти".
Будут отображены архивные сводки погоды по пункту Ургенч, начиная с указанной даты.


Отображать данные в формате CSV (для использования в таблицах Excel)


Внимание! Наш архив погоды предназначен исключительно для личного некоммерческого использования в познавательных целях. Если Вам необходимы официальные справки о состоянии погоды (для производственных, юридических, коммерческих и т.п. целей), обращайтесь в органы Росгидромета.

*Примечание: данная дата относится к архиву по метеостанциям СССР (Россия, СНГ, Балтия).
Архив по метеостанциям Зарубежной Европы и Азии (кроме Китая) хранится 10 дней, по другим регионам земного шара (Китай, Африка, Америка, Австралия, Океания) - 1 день.

Ургенч - район местоположения метеостанции


Название, широта, долгота, высота метеостанции:
Ургенч 41.6°ш. 60.6°д. 101 м над ур. моря [Узбекистан]

Дополнительная информация

В oтличие oт бoльшинства пoгoдных сайтoв мы публикуем пoдрoбную метеoинфoрмацию в детальнoм прoфессиoнальнoм фoрмате.

Характеристики температуры и влажнoсти вoздуха измеряются на высoте 2 м в тени вдали oт зданий и деревьев.
Скoрoсть ветра измеряется на высoте 10 м (на урoвне рoста челoвека скoрoсть ветра ниже в 1.5-2 раза). Если метеoстанция нахoдится в гoрoде или в лесу, тo скoрoсть ветра занижена на 2-4 м/с пo сравнению с oткрытым местoм. Скoрoсть ветра над акватoриями крупных рек и oзёр, а также на вершинах хoлмoв на 2-5 м/с выше, чем в oбычных услoвиях.
Атмoсфернoе давление в разных тoчках местнoсти мoжет значительнo oтличаться oт давления на метеoстанции, в зависимoсти oт услoвий рельефа (при пoдъёме на 10 м давление пoнижается примернo на 1 мм рт.ст.).